Tracking 29892 objects as of 21-Nov-2024
HD Live streaming from Space Station
objects crossing your sky now

COSMOS 2251 DEB

Track COSMOS 2251 DEB now!
10-day predictions


NORAD ID: 34006
Int'l Code: 1993-036GR
Perigee: 659.9 km
Apogee: 679.0 km
Inclination: 74.1 °
Period: 98.0 minutes
Semi major axis: 7040 km
RCS: 0.026 m2 (small)
Launch date: June 16, 1993
Source: Commonwealth of Independent States (former USSR) (CIS)
Launch site: PLESETSK MISSILE AND SPACE COMPLEX (PKMTR)

Note: This is SATELLITE DEBRIS
Your satellite tracking list
Your tracking list is empty




NASA's NSSDC Master Catalog

Two Line Element Set (TLE):
1 34006U 93036GR  24325.59312237  .00025691  00000-0  43039-2 0  9996
2 34006  74.0646 187.0683 0013535 250.6397 131.7787 14.69615219829405
Source of the keplerian elements: AFSPC